Volver al catálogo

COSMOS 2195

ActivoMilitarPO
NORAD 22006·PAYLOAD·🇷🇺 Russia

Lanzado Jul 1, 1992 desde Plesetsk Cosmodrome

Loading…

Próximos Pases (próximas 24 horas)

TLE

ActualizadoSource: Space-Track

Época: Sep 14, 2026, 07:02 UTC

1 22006U 92036A   26257.29356932  .00000056  00000-0  42400-4 0  9996
2 22006  82.9392 352.0411 0037513  27.7832 352.2600 13.75197171716384

Sigue COSMOS 2195 en tiempo real con AllMySat

Download on the App Store